STARLINK-30174, 57609

Orbit data source: Space-Track

STARLINK-30174, 57609 is a payload satellite owned by SpaceX/Seattle (US) in LEO that was launched on Fri, 11 Aug 2023 UTC via an FALCON 9 launch vehicle from the Air Force Eastern Test Range (AFETR). Payload-class satellites include a variety of spacecraft equipped with specific instruments for various scientific and technological missions. These include communications satellites like Starlink; space stations such as the ISS; scientific satellites like the Hubble; Earth observation satellites from companies like Planet Labs, Umbra, and HawkEye 360; GPS; miniature CubeSats for education and research; and military/defense satellites.

Loading next visibility...
Identifier
57609, 2023-119H
Orbit
LEO
Country
Flag of USUS
Related business
Manufacturer
SpaceX/Seattle
Mission
Operational Commercial Communications
Bus & Motor
STARLINK V2M, Unknown motor
Mass
730 kg wet, ~700 kg dry
Launch date (UTC)
2023-08-11 (3 years ago)
Launch vehicle
FALCON 9
Launch site
Air Force Eastern Test Range (AFETR)
Object type
Payload
Rocket body
Debris
Shape & HBR
Box + 2 Pan, 17.7 m
Radar Cross Section
33.884 m², Large (>1 m²)

Expand to show TLE details & history
Last TLE update: 9 hours ago

TLE from 9 hours ago
0 STARLINK-30174
1 57609U 23119H   26095.25002315 -.00019344  00000-0 -71409-3 0  9990
2 57609  43.0035 291.2645 0001301 288.0855  15.6804 15.26706078  5757
Epoch: 2026-04-05T06:00Z
TLE epoch observation values (Epoch: 2026-04-05T06:00:02.000Z)
Latitude
-34.71421°
Longitude
-39.92685°
Altitude
494.693 km
Speed
7.618 km/s
True Right ascension
16h 14m 33s
True Declination
-34° 32' 50"
Sunlit
Object was in full shadow at epoch
Visualization orbit readout
Latitude
Unknown
Longitude
Unknown
Altitude
Unknown
Speed
Unknown
Apparent Right ascension
Unknown
Apparent Declination
Unknown
Sunlit
N/A
Visualization observer readout
Local Sidereal Time
20:51:17
Azimuth
Unknown
Elevation
Unknown
Doppler factor
Unknown
Orbital elements
Apogee altitude
488.504 km
Perigee altitude
486.718 km
Semi-major axis
6,865.748 km
Eccentricity
0.00013
Inclination
43.0035°
RAAN
291.2645°
Arg. of periapsis
288.0855°
True anomaly
15.68443°
Mean anomaly
15.6804°
Eccentric anomaly
15.68241°
Mean motion
3.81515 °/min
Orbital period
94.36 mins
BSTAR
-0.00071409
Loading maneuver chart data...
Computing Atmospheric mass density...
Loading historical data...
Loading historical data...
Loading historical data...
Loading historical data...
Loading historical data...
Loading historical data...
Loading historical data...

Documentation

Showing up to 5 results
|